Regional Weather Roundup
Issued by NWS

Home | Current Version | Previous Version | Text Only | Print | Product List | Glossary Off
Versions: 1 2 3 4 5 6 7 8 9 10 11 12 13 14 15 16 17 18 19 20 21 22 23 24 25 26 27 28 29 30 31 32 33 34 35 36 37 38 39 40 41 42 43 44 45 46 47 48 49 50

255
ASUS44 KLIX 011108
RWRLA
LOUISIANA WEATHER ROUNDUP
NATIONAL WEATHER SERVICE NEW ORLEANS LA
600 AM CDT WED APR 01 2015

NOTE: "FAIR" INDICATES FEW OR NO CLOUDS BELOW 12,000 FEET WITH NO
      SIGNIFICANT WEATHER AND/OR OBSTRUCTIONS TO VISIBILITY.
      SKY/WX - SKY CONDITION AND SIGNIFICANT WEATHER.
      TMP - AIR TEMPERATURE.    DP   - DEWPOINT TEMPERATURE.
      RH  - RELATIVE HUMIDITY.  PRES - PRESSURE.
      HX  - HEAT INDEX.         WCI  - WIND CHILL INDEX.

*  THESE STATIONS ARE NOT NWS OR FAA STATIONS AND ARE NOT UNDER
   NWS QUALITY CONTROL.

LAZ040-048-061>063-065-066-069-011200-
SOUTHEAST LOUISIANA

CITY           SKY/WX    TMP DP  RH WIND       PRES   REMARKS
N.O. AUDUBON     N/A     64  64 100 MISG        N/A
N.O. INTL ARPT MOCLDY    64  61  90 S5        30.03S
N.O. LAKEFRONT PTCLDY    67  62  84 S3        30.04R
SLIDELL        MOCLDY    57  56  96 CALM      30.03R FOG
BATON ROUGE    PTCLDY    60  59  96 NE3       30.02R FOG
BOOTHVILLE     CLOUDY    67  65  93 CALM      30.05R
BELLE CHASSE   MOCLDY    57  56  96 CALM      30.04R FOG
BOGALUSA*      FOG       60  57  91 CALM      30.05R VSB 1
GALLIANO*      MOSUNNY   56  56  99 CALM      30.04S FOG
NEW ROADS*     FOG       63  62  97 CALM      30.02S VSB<1/4
GONZALES*      FOG       63  63 100 CALM      30.03R VSB 3/4
HAMMOND*       FOG       59  57  94 CALM      30.05S VSB 1/2
HOUMA*         FOG       59  59 100 CALM      30.03S VSB 3/4
PORT FOURCHON* CLOUDY    72  66  83 CALM      30.07S

$$

LAZ041-044-053-054-011200-
SOUTHWEST LOUISIANA

CITY           SKY/WX    TMP DP  RH WIND       PRES   REMARKS
LAKE CHARLES   FOG       62  61  96 CALM      30.00R VSB 1/4
LAFAYETTE      PTCLDY    63  62  97 CALM      30.02R FOG
PATTERSON      PTCLDY    61  59  94 CALM      30.04R
SALT POINT       N/A     65  64  97 CALM      30.01R
NEW IBERIA     FOG       61  59  94 CALM      30.02R VSB 1/4
CHENAULT AIRPK FOG       61  61 100 CALM      30.00R VSB 1/2

$$

LAZ027-028-011200-
CENTRAL LOUISIANA

CITY           SKY/WX    TMP DP  RH WIND       PRES   REMARKS
FORT POLK      CLOUDY    67  65  95 SW6       29.99R FOG
ALEXANDRIA INT PTCLDY    66  64  93 SW5       29.99S
ALEXANDRIA     CLOUDY    66  64  93 SW5       30.01R

$$

LAZ001-002-011200-
NORTHWEST LOUISIANA

CITY           SKY/WX    TMP DP  RH WIND       PRES   REMARKS
SHREVEPORT     MOCLDY    65  63  93 CALM      29.97S FOG
BARKSDALE AFB  MOCLDY    66  65  97 SW2       29.98R
DTN SHREVEPORT CLOUDY    66  63  90 CALM      29.98S

$$

LAZ014-016-011200-
NORTHEAST LOUISIANA

CITY           SKY/WX    TMP DP  RH WIND       PRES   REMARKS
MONROE         CLOUDY    66  64  93 SW12      30.00R
TALLULAH       CLOUDY    64  60  87 SW5       30.02R

$$




USA.gov is the U.S. government's official web portal to all federal, state and local government web resources and services.